Home > Weather > Tuzla > Past weeks

Flag for Bosnia-Herzegovina Past Weather in Tuzla, Bosnia-Herzegovina — Yesterday and Last 2 Weeks

Now
84 °F

Passing clouds.


Feels Like: 86 °F
Forecast: 66 / 93 °F
Wind: 3 mph from Northwest

Location: Tuzla

Current Time: Jul 23, 2016 at 11:28:28 AM

Latest Report: Jul 23, 2016 at 11:00 AM


Visibility: N/A

Pressure: 30.01 "Hg

Humidity: 51%

Dew Point: 64 °F

Location of TuzlaLocation

Past Weather in Tuzla — Graph

°F

Tuzla Temperature Yesterday

Maximum temperature yesterday: 90 °F (at 2:00 PM)
Minimum temperature yesterday: 57 °F (at 6:00 AM)
Average temperature yesterday: 79 °F

High & Low Weather Summary for the Past Weeks

 TemperatureHumidityPressure
High97 °F (Jul 12, 2:00 PM)100% (Jul 9, 6:00 AM)30.15 "Hg (Jul 9, 6:00 AM)
Low54 °F (Jul 18, 6:00 AM)28% (Jul 13, 2:00 PM)29.65 "Hg (Jul 14, 6:30 AM)
Average73 °F68%30.00 "Hg
* Reported Jul 8 10:00 AM — Jul 23 10:00 AM, Tuzla, Weather by CustomWeather, © 2016

Note: Actual official high and low records may vary slightly from our data, if they occured in-between our weather recording intervals... More about our weather records

Advertising

Tuzla Weather History for the Previous 24 Hours

Scroll right to see more
 ConditionsComfort  
Time TempWeatherWind HumidityBarometerVisibility
10:00 AM
Sat, Jul 23
81 °FSunny.2 mph62%30.01 "Hg10 mi
9:00 AM77 °FSunny.2 mph69%30.01 "Hg10 mi
8:00 AM72 °FSunny.1 mph78%30.01 "Hg10 mi
7:00 AM66 °FSunny.1 mph94%30.01 "Hg10 mi
6:30 AM64 °FSunny.1 mph94%30.01 "Hg10 mi
6:00 AM63 °FClear.1 mph94%30.01 "Hg10 mi
5:30 AM63 °FClear.1 mph94%29.98 "Hg10 mi
11:00 PM
Fri, Jul 22
70 °FPassing clouds.1 mph94%30.01 "HgN/A
10:30 PM72 °FPassing clouds.2 mph94%30.01 "HgN/A
10:00 PM72 °FPassing clouds.2 mph88%30.01 "HgN/A
9:30 PM73 °FPassing clouds.No wind83%30.01 "HgN/A
9:00 PM75 °FPassing clouds.2 mph78%29.98 "HgN/A
8:30 PM77 °FPassing clouds.2 mph74%29.98 "HgN/A
8:00 PM79 °FPassing clouds.3 mph70%29.98 "HgN/A
7:30 PM81 °FSunny.5 mph62%29.98 "Hg10 mi
7:00 PM84 °FSunny.5 mph51%29.98 "Hg10 mi
6:30 PM84 °FPassing clouds.6 mph48%29.98 "HgN/A
6:00 PM86 °FPassing clouds.9 mph46%29.98 "HgN/A
5:30 PM88 °FPassing clouds.7 mph43%29.98 "HgN/A
5:00 PM88 °FPassing clouds.6 mph40%29.98 "HgN/A
4:30 PM90 °FPassing clouds.3 mph38%29.95 "HgN/A
4:00 PM90 °FPassing clouds.3 mph38%29.95 "HgN/A
3:30 PM90 °FPassing clouds.3 mph38%29.98 "HgN/A
3:00 PM90 °FPassing clouds.5 mph36%29.98 "HgN/A
2:30 PM88 °FPassing clouds.5 mph38%29.98 "HgN/A
2:00 PM90 °FPassing clouds.2 mph36%29.98 "HgN/A
1:30 PM86 °FPassing clouds.3 mph38%29.98 "HgN/A
1:00 PM86 °FPassing clouds.3 mph40%29.98 "HgN/A
12:30 PM84 °FPassing clouds.1 mph43%29.98 "HgN/A
12:00 PM84 °FPassing clouds.3 mph43%29.98 "HgN/A
11:30 AM84 °FPassing clouds.3 mph45%29.98 "HgN/A
11:00 AM82 °FPassing clouds.3 mph48%30.01 "HgN/A
Weather by CustomWeather, © 2016

See weather overviewHow to use our weather pages